Startpagina
METAR-TAF:

METAR-TAF

Vliegvelden :

Productieplatform

L9-ff-1, Nederland

breedte: 53-36-52N, lengte: 4-57-37E, hoogte: 30 m

Actueel weer

Dit bericht is 40 minuten geleden gemaakt, om 17:25 UTC
Wind 28 kt uit het zuidwesten
Temperatuur 16°C
Vochtigheid 72%
Druk 1026 hPa
Zicht 10 km of meer
Weinig wolken op 2100 ft

METAR: EHMG 061725Z AUTO 23028KT 9999 FEW021 16/11 Q1026

Tijdstip: 20:05 (18:05 UTC)


TAF: ontbreekt

Waarnemingen en weersverwachtingen van meer dan 4000 vliegvelden (METAR en TAF).

De beschikbare stations zijn de gele en rode punten op de kaart.

Ga met uw muis naar het station om de naam te zien.

Klik dan om waarnemingen en weersverwachtingen te zien.

kaart wijzigen: klik op de groene knoppen met een zwart kruis om in te zoomen, op de groene knop met een streepje om uit te zoomen of op de groene pijlen voor aangrenzende kaarten.


METAR-TAF: